Location: ?
(35.4064°N, 139.3593°E)
Time: 16:09:42
(UTC+00:00)

ACS3 Solar Sail - Pass Details

Date: 19 June 2024
Orbit: 993 x 1023 km, 97.4° (Epoch: 19 July)

Event Time Altitude Azimuth Distance (km) Brightness Sun altitude
Exits shadow 12:29:52 41° 178° (S) 1,405 5.2 -23.1°
Maximum altitude 12:32:13 80° 259° (WSW) 1,018 4.8 -23.4°
Drops below altitude 10° 12:38:28 10° 346° (NNW) 2,767 8.1 -24.1°
Sets 12:40:57 0° 348° (NNW) 3,718 9.0 -24.3°
